Flag for Netherlands Weather past 2 weeks in Hilversum, Netherlands

Now
61 °F

Fog.


Feels Like: 61 °F
Forecast: 50 / 61 °F
Wind: 2 mph from Northwest

Location: De Bilt

Current Time: Sep 21, 2014 at 4:20:47 AM

Latest Report: Sep 21, 2014 at 3:00 AM


Visibility: 4 mi

Pressure: 30.00 "Hg

Humidity: 94%

Dew point: 59 °F

Location of HilversumLocation

Historic Weather in Hilversum — Graph

°F

Hilversum temperature yesterday

Maximum temperature yesterday: 74 °F (at 3:00 PM)
Minimum temperature yesterday: 56 °F (at 4:00 AM)
Average temperature yesterday: 63 °F

Past Weeks' High & Low Weather Summary

 TemperatureHumidityPressure
High77 °F (Sep 18, 3:00 PM)100% (Sep 6, 3:00 AM)30.29 "Hg (Sep 6, 3:00 AM)
Low46 °F (Sep 8, 7:00 AM)52% (Sep 17, 3:00 PM)29.81 "Hg (Sep 18, 5:00 PM)
Average62 °F85%30.04 "Hg
* Reported Sep 6 3:00 AM — Sep 21 3:00 AM, Hilversum, Weather by CustomWeather, © 2014

Note: Actual official high and low records may vary slightly from our data, if they occured in-between our weather recording intervals... More about our weather records

Advertising

Hilversum weather history for previous 24 hours

 ConditionsComfort  
Time TempWeatherWind HumidityBarometerVisibility
3:00 AM
Sep 21
61 °FFog.2 mph94%30.00 "Hg4 mi
2:00 AM61 °FFog.2 mph93%30.00 "Hg5 mi
1:00 AM61 °FFog.2 mph95%30.00 "Hg4 mi
12:00 AM62 °FFog.2 mph91%30.00 "Hg4 mi
11:00 PM
Sep 20
62 °FFog.2 mph94%29.99 "Hg3 mi
10:00 PM62 °FFog.1 mph93%29.99 "Hg3 mi
9:00 PM64 °FFog.3 mph88%29.98 "Hg5 mi
8:00 PM66 °FFog.3 mph88%29.96 "Hg2 mi
7:00 PM68 °FOvercast.3 mph84%29.95 "Hg4 mi
3:00 PM74 °FScattered clouds.2 mph67%29.93 "Hg6 mi
2:00 PM72 °FScattered clouds.2 mph74%29.94 "Hg4 mi
1:00 PM72 °FFog.1 mph80%29.95 "Hg2 mi
12:00 PM70 °FFog.1 mph84%29.95 "Hg2 mi
11:00 AM67 °FFog.1 mph92%29.94 "Hg2 mi
10:00 AM63 °FPartly sunny.N/A100%29.94 "Hg1 mi
9:00 AM60 °FLow clouds.1 mph100%29.93 "Hg1 mi
8:00 AM57 °FLow clouds.1 mph100%29.93 "Hg1 mi
7:00 AM57 °FLow clouds.No wind100%29.92 "Hg0 mi
6:00 AM56 °FDense fog.No wind100%29.92 "Hg0 mi
5:00 AM57 °FDense fog.1 mph100%29.91 "Hg0 mi
4:00 AM56 °FLow clouds.1 mph100%29.91 "Hg0 mi
Weather by CustomWeather, © 2014

See weather overviewHow to use our weather pages